map of LBA home
LBA - Airport
Location
City:  Leeds/Bradford, Yorkshire, England, United Kingdom
Near (Alt.):Yeadon
Name:Leeds Bradford International Airport
ICAO:EGNM
IATA:LBA

Details
Type:Airport (Aerodrome, Airfield)
Use:Public/Civil, International (customs port of entry)
Latitude:5351'58"N (53.866025)
Longitude:139'39"W (-1.660768)
Elevation:681 ft (208 m)
Variation:1.16W (WMM2015 magnetic declination)
0.16 annual change
Runways:1
Longest:7382 × 151 ft (2250 × 46 m), paved

Time
Time Zone:UTC+0 (DST+1)
Local Time:

Weather
METAR:EGNM 211750Z 29008KT 9999 FEW013 SCT028 11/08 Q1028
TAF:EGNM 211657Z 2118/2218 29008KT 9999 FEW015
BECMG 2210/2212 27018KT

Related Locations
Nearby:
Farthest:NZBA: 11783 mi / 18963 km
Balclutha, OTA, NZ

Find:

   beyond  
but within

Other Information
Maps:
NOTAMs:
Links:
Sources:

  
  • flag of United Kingdom
  • flag of England
  

Airport Diagram

Airport diagram for LBA

Airport diagram PDF

Sectional Chart

Flight Planning
at skyvector.com

Satellite Image

Google Maps Satellite view

 

Copyright © 2004-2018 Karl L. Swartz. All rights reserved.
The Great Circle Mapper name and logo are trademarks of the Great Circle Mapper.
All other trademarks mentioned herein belong to their respective owners.
Please see credits for attibutions and further copyright information.

  Follow gcmap on Facebook Follow gcmap on Twitter Follow gcmap on Google+ GCmap on LinkedIn

hCard Microformat

Geo Microformat